Location: Stonelick Lake State Park
(39.2170°N, 84.0850°W)
Time: 04:46:38
(UTC-05:00)

Daily predictions for brighter satellites

Satellite Brightness Start Highest point End
(mag) Time Altitude Azimuth Time Altitude Azimuth Time Altitude Azimuth
SL-16 R/B 3.0 04:57:16 49° E 04:57:16 49° E 05:01:59 10° SE
Cosmos 2297 Rocket 4.0 05:05:23 20° NNE 05:05:23 20° NNE 05:07:07 10° NNE
ISS 0.2 05:09:16 10° ESE 05:09:16 10° ESE 05:09:18 10° ESE
Cosmos 968 Rocket 4.2 05:06:47 51° E 05:06:47 51° E 05:11:28 10° NNE
USA 229 DEB 3.6 05:13:19 80° WNW 05:13:44 85° WSW 05:20:59 10° SSE
USA 229 3.6 05:13:22 80° NW 05:13:50 86° WSW 05:21:05 10° SSE
Cosmos 2227 Rocket 4.3 05:18:50 15° N 05:18:50 15° N 05:19:51 10° N
Tsikada Rocket 3.9 05:19:16 80° SW 05:19:16 80° SW 05:25:14 10° S
Feng Yun 1-1 Rocket 4.5 05:21:51 10° NNE 05:26:07 56° N 05:26:07 56° N
NOAA 6 4.3 05:24:43 10° NNE 05:29:55 68° ESE 05:35:04 10° S
Cosmos 1340 Rocket 4.5 05:34:58 18° NNE 05:37:14 32° ENE 05:40:49 10° SE
Cosmos 2221 4.3 05:33:37 10° SSE 05:37:27 32° E 05:41:18 10° NNE
SL-14 R/B 3.9 05:41:33 41° NNE 05:42:40 56° E 05:46:38 10° SSE
Cosmos 1777 Rocket 4.4 05:41:35 10° S 05:46:44 64° ESE 05:51:53 10° NNE
Tiangong 2 3.0 05:53:42 24° SSE 05:53:57 24° SSE 05:56:34 10° E
USA 234 4.5 05:51:23 10° E 05:57:04 33° NNE 06:01:29 16° NNW
ERBS 2.4 05:59:49 73° E 05:59:49 73° E 06:03:01 10° SE
Cosmos 2263 Rocket 4.5 05:55:29 10° SSE 06:00:03 26° ESE 06:04:39 10° NE
Cosmos 1603 4.0 05:56:06 15° NNW 06:00:45 65° ENE 06:06:22 10° SSE
Cosmos 2151 2.8 05:59:21 32° N 06:01:18 87° WSW 06:05:33 10° S
NOSS 3-1 (C) 4.0 06:01:36 20° NW 06:07:28 88° WSW 06:15:53 10° SSE
DELTA 2 R/B (1) 3.9 06:04:53 28° SW 06:07:42 63° SSE 06:13:12 10° E
COSMO-SKYMED 1 2.6 06:09:46 10° S 06:14:01 56° W 06:16:07 28° NNW
Cosmos 1538 Rocket 4.1 06:13:23 24° NW 06:16:30 56° WSW 06:21:42 10° S
CZ-2C R/B 4.0 06:14:38 10° NNE 06:18:48 33° E 06:22:56 10° SSE
CSL-04 Rocket 3.7 06:14:49 10° NNE 06:20:08 78° ESE 06:25:24 10° S
IDEFIX/ARIANE 42P 4.1 06:15:13 10° NNE 06:20:08 39° E 06:25:02 10° SSE
Cosmos 1805 Rocket 3.9 06:16:44 10° N 06:21:08 67° E 06:25:29 10° SSE
CZ-4 R/B 3.0 06:19:36 10° NNE 06:23:26 38° E 06:27:18 10° SSE
Ariane Rocket 2.9 06:18:48 10° N 06:23:56 80° WNW 06:29:01 10° SSW
Cosmos 923 Rocket 4.1 06:18:49 10° NNW 06:24:04 76° ENE 06:29:19 10° SSE
Cosmos 2233 Rocket 4.5 06:19:20 10° SW 06:24:59 35° WNW 06:30:41 10° N
Genesis I 3.1 06:24:38 31° NW 06:26:23 69° WSW 06:30:15 10° SSE
SL-8 R/B 4.0 06:25:32 25° NW 06:28:14 63° NNE 06:33:00 10° ESE
Cosmos 2227 4.3 06:24:18 10° SW 06:29:46 53° WNW 06:35:17 10° NNE
GPS 2-05 Rocket1 3.4 06:30:13 28° SW 06:31:29 43° S 06:34:39 10° ESE
Cosmos 1680 Rocket 3.9 06:26:48 10° NNW 06:32:07 68° ENE 06:37:24 10° SSE
CZ-3 Stage 3 3.6 06:28:59 15° WSW 06:32:27 37° S 06:47:21 10° ESE
SeaSat 1 4.3 06:35:28 10° NNW 06:36:51 13° NW 06:36:51 13° NW
SL-16 R/B 3.4 06:39:13 19° W 06:40:07 20° W 06:44:07 10° SW
YAOGAN 3 4.5 06:36:29 10° N 06:40:51 75° WNW 06:45:11 10° SSW
OAO 2 Rocket 4.3 06:38:34 17° WSW 06:41:41 34° SSW 06:46:05 10° SE
Sich 1 3.2 06:37:33 10° N 06:41:55 73° E 06:46:12 10° SSE
ISS -1.5 06:41:57 17° WSW 06:42:23 17° SW 06:44:38 10° S
Cosmos 2297 Rocket 4.1 06:47:13 11° NW 06:47:13 11° NW 06:47:55 10° NNW
Cosmos 1633 Rocket 3.3 06:42:43 10° N 06:47:05 73° E 06:51:24 10° SSE
Coronas F rocket 1.7 06:45:19 10° N 06:47:41 54° E 06:50:02 10° SSE
PAYLOAD A 3.8 06:43:14 10° N 06:48:15 76° WNW 06:53:03 10° SSW
Cosmos 2034 Rocket 3.9 06:42:34 10° SSW 06:48:43 69° W 06:54:59 10° N
Cosmos 1328 Rocket 4.4 06:44:48 10° S 06:49:01 53° E 06:53:16 10° NNE
Nadezhda 4 Rocket 4.1 06:46:51 10° N 06:53:13 85° E 06:59:30 10° S
Cosmos 389 Rocket 2.5 06:50:28 10° S 06:54:07 88° W 06:57:49 10° N
Cosmos 1703 3.5 06:50:24 10° NNW 06:54:10 45° W 06:57:54 10° SSW
Meteor 1-28 Rocket 4.4 06:55:14 10° SSW 06:58:16 23° W 07:01:19 10° NW
Gbstr 26 Del rocket 4.0 06:55:48 10° SW 07:01:10 78° SE 07:07:55 10° NE
Cosmos 1271 Rocket 4.2 06:59:52 10° WSW 07:02:13 16° WNW 07:04:34 10° NNW
Cosmos 1626 2.4 06:59:20 10° NNW 07:02:54 44° W 07:06:27 10° SSW
Cosmos 2344 3.7 06:56:02 10° SSW 07:03:44 88° ESE 07:12:16 10° NE
Cosmos 2058 4.2 07:01:06 10° NW 07:04:11 20° W 07:07:15 10° SW
OPS 8737 4.2 07:00:57 10° SW 07:04:22 84° WNW 07:07:32 10° NNE
PSLV R/B 3.4 07:01:41 14° W 07:04:29 62° N 07:07:49 10° E
Cosmos 2112 Rocket 4.1 07:02:06 10° NNW 07:07:25 67° WSW 07:12:42 10° S
YAOGAN 1 2.6 07:03:54 10° NNE 07:08:16 88° ESE 07:12:35 10° SSW
Cosmos 2298 Rocket 4.5 07:03:21 10° S 07:08:35 69° ESE 07:13:51 10° NNE
Cosmos 1092 Rocket 4.1 07:05:40 10° N 07:11:59 86° E 07:18:12 10° S
BREEZE-M DEB (TANK) 3.9 07:10:20 10° NNW 07:12:11 16° NNE 07:13:42 10° ENE
Cosmos 1184 Rocket 3.5 07:09:58 10° NNW 07:12:59 32° W 07:15:59 10° SSW
Cosmos 1340 Rocket 4.4 07:11:03 10° NW 07:13:24 15° W 07:15:45 10° SW
Cosmos 2221 3.8 07:11:56 10° WSW 07:15:05 19° WNW 07:18:13 10° NNW
Cosmos 292 Rocket 4.5 07:13:43 10° NW 07:18:03 34° WSW 07:22:22 10° SSW
Milstar 3 Cent rocket 4.3 07:13:56 10° SW 07:19:12 22° S 07:23:05 10° ESE
Cosmos 1666 Rocket 4.1 07:15:50 10° NNW 07:19:57 37° W 07:24:05 10° SSW
Cosmos 1943 3.4 07:16:02 10° NNW 07:21:38 58° WSW 07:27:11 10° S
Cosmos 1484 Rocket 3.1 07:18:37 10° NNE 07:22:39 76° ESE 07:26:36 10° S
SMAP 3.2 07:21:42 10° N 07:26:14 52° WNW 07:30:45 10° SSW
ATLAS 2AS CENTAUR R/B 3.3 07:19:18 10° NNW 07:27:24 73° NE 07:34:52 10° SE
